| time (UTC) | temp F | wind direction | speed MPH | gust MPH | rain 1hr in | rain 24hr in | rain mn in | humidity % | barometer mb |
| 20260507185102 | 56 | 0 | 0.0 | 4.0 | 0.01 | 0.68 | 0.68 | 96 | 1000.1 |
| 20260507184559 | 56 | 0 | 1.0 | 4.0 | 0.01 | 0.68 | 0.68 | 96 | 1000.2 |
| 20260507184058 | 55 | 0 | 0.0 | 0.0 | 0.01 | 0.68 | 0.68 | 96 | 1000.1 |
| 20260507183550 | 55 | 0 | 0.0 | 0.0 | 0.01 | 0.68 | 0.68 | 96 | 1000.1 |
| 20260507183052 | 54 | 0 | 0.0 | 4.0 | 0.01 | 0.68 | 0.68 | 96 | 1000.2 |
| 20260507182551 | 54 | 0 | 0.0 | 4.0 | 0.01 | 0.68 | 0.68 | 96 | 1000.1 |
| 20260507182049 | 54 | 0 | 0.0 | 2.0 | 0.01 | 0.68 | 0.68 | 96 | 1000.1 |
| 20260507181834 | 54 | 0 | 0.0 | 3.0 | 0.01 | 0.68 | 0.68 | 96 | 1000.3 |
| 20260507181050 | 53 | 0 | 0.0 | 3.0 | 0.00 | 0.67 | 0.67 | 96 | 1000.4 |
| 20260507180547 | 53 | 0 | 0.0 | 5.0 | 0.00 | 0.67 | 0.67 | 96 | 1000.4 |
| 20260507180055 | 52 | 0 | 2.0 | 6.0 | 0.00 | 0.67 | 0.67 | 96 | 1000.6 |
| 20260507175549 | 52 | 0 | 2.0 | 6.0 | 0.00 | 0.67 | 0.67 | 96 | 1000.7 |
| 20260507175044 | 52 | 0 | 2.0 | 10.0 | 0.01 | 0.67 | 0.67 | 96 | 1000.9 |
| 20260507174544 | 51 | 0 | 3.0 | 10.0 | 0.02 | 0.67 | 0.67 | 96 | 1000.8 |
| 20260507174045 | 51 | 0 | 3.0 | 9.0 | 0.02 | 0.67 | 0.67 | 96 | 1000.7 |
| 20260507173828 | 51 | 0 | 0.0 | 6.0 | 0.02 | 0.67 | 0.67 | 96 | 1000.3 |
| 20260507173323 | 51 | 0 | 0.0 | 11.0 | 0.02 | 0.67 | 0.67 | 96 | 1000.4 |
| 20260507172538 | 51 | 0 | 3.0 | 11.0 | 0.02 | 0.67 | 0.67 | 96 | 1000.9 |
| 20260507172039 | 51 | 0 | 4.0 | 11.0 | 0.02 | 0.67 | 0.67 | 96 | 1000.4 |
| 20260507171537 | 51 | 0 | 2.0 | 4.0 | 0.04 | 0.67 | 0.67 | 96 | 1000.2 |
| 20260507171320 | 51 | 0 | 0.0 | 4.0 | 0.05 | 0.67 | 0.67 | 96 | 999.9 |
| 20260507170822 | 51 | 0 | 0.0 | 4.0 | 0.06 | 0.67 | 0.67 | 96 | 999.8 |
| 20260507170048 | 51 | 0 | 0.0 | 4.0 | 0.08 | 0.67 | 0.67 | 96 | 1000.3 |
| 20260507165537 | 51 | 0 | 0.0 | 4.0 | 0.08 | 0.67 | 0.67 | 96 | 1000.9 |
| 20260507165033 | 51 | 0 | 0.0 | 4.0 | 0.07 | 0.66 | 0.66 | 96 | 1001.0 |
| 20260507164814 | 51 | 0 | 0.0 | 4.0 | 0.06 | 0.65 | 0.65 | 96 | 1000.8 |
| 20260507164038 | 51 | 0 | 1.0 | 3.0 | 0.07 | 0.65 | 0.65 | 96 | 1000.9 |
| 20260507163532 | 50 | 0 | 0.0 | 3.0 | 0.06 | 0.65 | 0.65 | 96 | 1000.8 |
| 20260507163034 | 50 | 0 | 0.0 | 0.0 | 0.06 | 0.65 | 0.65 | 96 | 1000.8 |
| 20260507162533 | 50 | 0 | 0.0 | 0.0 | 0.07 | 0.65 | 0.65 | 96 | 1000.5 |
| 20260507162035 | 50 | 0 | 0.0 | 0.0 | 0.07 | 0.64 | 0.65 | 96 | 1000.5 |
| 20260507161531 | 50 | 0 | 0.0 | 0.0 | 0.06 | 0.63 | 0.63 | 96 | 1000.6 |
| 20260507161033 | 50 | 0 | 0.0 | 6.0 | 0.07 | 0.62 | 0.62 | 96 | 1001.2 |
| 20260507160531 | 50 | 0 | 0.0 | 6.0 | 0.06 | 0.61 | 0.61 | 96 | 1001.7 |
| 20260507160052 | 50 | 0 | 0.0 | 3.0 | 0.06 | 0.59 | 0.59 | 96 | 1002.0 |
| 20260507155531 | 50 | 0 | 0.0 | 1.0 | 0.08 | 0.59 | 0.59 | 96 | 1001.6 |
| 20260507155031 | 50 | 0 | 0.0 | 5.0 | 0.09 | 0.59 | 0.59 | 96 | 1001.4 |
| 20260507154531 | 49 | 0 | 1.0 | 6.0 | 0.11 | 0.59 | 0.59 | 96 | 1001.3 |
| 20260507154035 | 49 | 0 | 2.0 | 6.0 | 0.14 | 0.58 | 0.58 | 96 | 1001.5 |
| 20260507153531 | 49 | 0 | 1.0 | 6.0 | 0.19 | 0.58 | 0.58 | 96 | 1001.6 |
| 20260507153033 | 49 | 0 | 0.0 | 6.0 | 0.21 | 0.58 | 0.58 | 96 | 1001.7 |
| 20260507152529 | 49 | 0 | 0.0 | 3.0 | 0.22 | 0.57 | 0.57 | 96 | 1001.6 |
| 20260507152032 | 49 | 0 | 1.0 | 5.0 | 0.23 | 0.57 | 0.57 | 96 | 1001.4 |
| 20260507151531 | 49 | 0 | 1.0 | 5.0 | 0.24 | 0.57 | 0.57 | 96 | 1001.9 |
| 20260507151037 | 50 | 0 | 0.0 | 5.0 | 0.24 | 0.55 | 0.55 | 96 | 1002.1 |
| 20260507150528 | 50 | 0 | 1.0 | 5.0 | 0.25 | 0.54 | 0.54 | 96 | 1002.2 |
| 20260507150048 | 50 | 0 | 1.0 | 3.0 | 0.24 | 0.53 | 0.53 | 96 | 1002.2 |
| 20260507145528 | 51 | 0 | 0.0 | 3.0 | 0.23 | 0.51 | 0.51 | 96 | 1002.0 |
| 20260507145032 | 51 | 0 | 1.0 | 3.0 | 0.22 | 0.50 | 0.50 | 96 | 1002.2 |
| 20260507144526 | 51 | 0 | 0.0 | 1.0 | 0.20 | 0.48 | 0.48 | 96 | 1002.6 |
| 20260507144028 | 51 | 0 | 0.0 | 0.0 | 0.17 | 0.43 | 0.44 | 96 | 1002.4 |
| 20260507143526 | 51 | 0 | 0.0 | 0.0 | 0.12 | 0.39 | 0.39 | 96 | 1002.1 |
| 20260507143033 | 51 | 0 | 0.0 | 0.0 | 0.09 | 0.37 | 0.37 | 96 | 1002.4 |
| 20260507142526 | 51 | 0 | 0.0 | 0.0 | 0.08 | 0.35 | 0.35 | 96 | 1002.6 |
| 20260507142029 | 51 | 0 | 0.0 | 5.0 | 0.07 | 0.34 | 0.35 | 96 | 1002.5 |
| 20260507141525 | 51 | 0 | 2.0 | 5.0 | 0.06 | 0.33 | 0.33 | 96 | 1003.2 |
| 20260507141028 | 51 | 0 | 0.0 | 3.0 | 0.03 | 0.30 | 0.31 | 96 | 1003.2 |
| 20260507140525 | 51 | 0 | 0.0 | 3.0 | 0.02 | 0.29 | 0.29 | 96 | 1002.6 |
| 20260507140029 | 51 | 0 | 0.0 | 4.0 | 0.01 | 0.28 | 0.28 | 96 | 1002.2 |
| 20260507135525 | 51 | 0 | 0.0 | 6.0 | 0.01 | 0.28 | 0.28 | 96 | 1002.5 |
| 20260507135032 | 51 | 0 | 1.0 | 6.0 | 0.00 | 0.28 | 0.28 | 96 | 1002.7 |
| 20260507134524 | 51 | 0 | 1.0 | 5.0 | 0.00 | 0.28 | 0.28 | 96 | 1002.9 |
| 20260507134030 | 51 | 0 | 2.0 | 6.0 | 0.00 | 0.28 | 0.28 | 96 | 1003.0 |
| 20260507133524 | 51 | 0 | 0.0 | 7.0 | 0.00 | 0.28 | 0.28 | 96 | 1002.9 |
| 20260507133034 | 51 | 0 | 1.0 | 7.0 | 0.00 | 0.28 | 0.28 | 96 | 1002.9 |
| 20260507132524 | 51 | 0 | 0.0 | 9.0 | 0.00 | 0.28 | 0.28 | 96 | 1002.7 |
| 20260507132031 | 51 | 0 | 3.0 | 9.0 | 0.00 | 0.28 | 0.28 | 96 | 1002.8 |
| 20260507131524 | 51 | 0 | 1.0 | 12.0 | 0.00 | 0.28 | 0.28 | 96 | 1002.9 |
| 20260507131319 | 51 | 0 | 2.0 | 12.0 | 0.00 | 0.28 | 0.28 | 96 | 1002.9 |
| 20260507130809 | 51 | 0 | 0.0 | 12.0 | 0.00 | 0.28 | 0.28 | 96 | 1002.9 |
| 20260507130028 | 51 | 0 | 2.0 | 14.0 | 0.00 | 0.28 | 0.28 | 96 | 1003.2 |
| 20260507125523 | 51 | 0 | 4.0 | 14.0 | 0.00 | 0.28 | 0.28 | 95 | 1003.0 |
| 20260507125033 | 51 | 0 | 3.0 | 13.0 | 0.00 | 0.28 | 0.28 | 95 | 1002.9 |
| 20260507124810 | 51 | 0 | 4.0 | 13.0 | 0.00 | 0.28 | 0.28 | 95 | 1003.1 |
| 20260507124026 | 51 | 0 | 1.0 | 12.0 | 0.00 | 0.28 | 0.28 | 95 | 1003.2 |
| 20260507123526 | 51 | 0 | 4.0 | 12.0 | 0.00 | 0.28 | 0.28 | 95 | 1003.1 |
| 20260507123032 | 51 | 0 | 4.0 | 11.0 | 0.00 | 0.28 | 0.28 | 95 | 1003.3 |
| 20260507122522 | 51 | 0 | 3.0 | 13.0 | 0.00 | 0.28 | 0.28 | 95 | 1003.3 |
| 20260507122315 | 51 | 0 | 5.0 | 13.0 | 0.00 | 0.28 | 0.28 | 95 | 1003.2 |
| 20260507121808 | 51 | 0 | 4.0 | 11.0 | 0.00 | 0.28 | 0.28 | 96 | 1003.4 |
| 20260507121028 | 51 | 0 | 4.0 | 11.0 | 0.00 | 0.28 | 0.28 | 95 | 1003.5 |
| 20260507120950 | 51 | 0 | 3.0 | 14.0 | 0.01 | 0.28 | 0.28 | 95 | 1003.8 |
| 20260507120632 | 51 | 0 | 4.0 | 13.0 | 0.00 | 0.28 | 0.28 | 96 | 1003.6 |
| 20260507115032 | 51 | 0 | 6.0 | 14.0 | 0.01 | 0.28 | 0.28 | 95 | 1003.9 |
| 20260507114521 | 51 | 0 | 2.0 | 11.0 | 0.01 | 0.28 | 0.28 | 95 | 1003.9 |
| 20260507114320 | 51 | 0 | 2.0 | 12.0 | 0.01 | 0.28 | 0.28 | 95 | 1003.9 |
| 20260507113809 | 51 | 0 | 3.0 | 13.0 | 0.01 | 0.28 | 0.28 | 95 | 1003.9 |
| 20260507113030 | 51 | 0 | 5.0 | 13.0 | 0.01 | 0.28 | 0.28 | 95 | 1003.6 |
| 20260507112521 | 51 | 0 | 6.0 | 11.0 | 0.01 | 0.28 | 0.28 | 95 | 1003.8 |
| 20260507112026 | 51 | 0 | 2.0 | 11.0 | 0.01 | 0.28 | 0.28 | 95 | 1004.0 |
| 20260507111521 | 51 | 0 | 4.0 | 15.0 | 0.01 | 0.28 | 0.28 | 95 | 1004.2 |
| 20260507111023 | 51 | 0 | 7.0 | 15.0 | 0.01 | 0.28 | 0.28 | 95 | 1004.4 |
| 20260507110521 | 51 | 0 | 5.0 | 13.0 | 0.01 | 0.28 | 0.28 | 95 | 1004.3 |
| 20260507110029 | 51 | 0 | 4.0 | 11.0 | 0.00 | 0.27 | 0.27 | 95 | 1004.2 |
| 20260507105521 | 51 | 0 | 4.0 | 17.0 | 0.00 | 0.27 | 0.27 | 95 | 1004.3 |
| 20260507105028 | 51 | 0 | 7.0 | 17.0 | 0.00 | 0.27 | 0.27 | 95 | 1004.4 |
| 20260507104520 | 51 | 0 | 5.0 | 14.0 | 0.01 | 0.27 | 0.27 | 95 | 1004.5 |
| 20260507104307 | 51 | 0 | 4.0 | 15.0 | 0.01 | 0.27 | 0.27 | 95 | 1004.6 |
| 20260507103519 | 51 | 0 | 4.0 | 15.0 | 0.01 | 0.27 | 0.27 | 95 | 1004.4 |
| 20260507103020 | 51 | 0 | 7.0 | 16.0 | 0.01 | 0.27 | 0.27 | 95 | 1004.6 |
| 20260507102519 | 51 | 0 | 5.0 | 16.0 | 0.01 | 0.27 | 0.27 | 95 | 1004.7 |
| 20260507102019 | 51 | 0 | 4.0 | 12.0 | 0.01 | 0.27 | 0.27 | 95 | 1004.7 |
| 20260507102011 | 51 | 0 | 2.0 | 15.0 | 0.02 | 0.27 | 0.27 | 95 | 1004.7 |
| 20260507101649 | 51 | 0 | 4.0 | 14.0 | 0.01 | 0.27 | 0.27 | 95 | 1004.5 |
| 20260507101121 | 51 | 0 | 3.0 | 15.0 | 0.02 | 0.27 | 0.27 | 95 | 1004.5 |
| 20260507100549 | 51 | 0 | 5.0 | 15.0 | 0.02 | 0.27 | 0.27 | 95 | 1004.5 |
| 20260507095518 | 51 | 0 | 4.0 | 16.0 | 0.03 | 0.27 | 0.27 | 95 | 1004.7 |
| 20260507095019 | 51 | 0 | 6.0 | 16.0 | 0.04 | 0.27 | 0.27 | 95 | 1004.7 |
| 20260507094518 | 51 | 0 | 6.0 | 16.0 | 0.04 | 0.26 | 0.26 | 95 | 1004.6 |
| 20260507094016 | 50 | 0 | 4.0 | 27.0 | 0.04 | 0.26 | 0.26 | 95 | 1004.6 |
| 20260507093802 | 50 | 0 | 8.0 | 27.0 | 0.05 | 0.26 | 0.26 | 95 | 1004.7 |
| 20260507093304 | 50 | 0 | 6.0 | 24.0 | 0.06 | 0.26 | 0.26 | 95 | 1004.7 |
| 20260507092516 | 50 | 0 | 10.0 | 24.0 | 0.06 | 0.26 | 0.26 | 95 | 1004.6 |
| 20260507092006 | 50 | 0 | 6.0 | 22.0 | 0.06 | 0.26 | 0.26 | 95 | 1004.6 |
| 20260507091504 | 50 | 0 | 9.0 | 22.0 | 0.06 | 0.26 | 0.26 | 95 | 1004.7 |
| 20260507091008 | 50 | 0 | 6.0 | 22.0 | 0.06 | 0.25 | 0.25 | 95 | 1004.8 |
| 20260507090503 | 50 | 0 | 7.0 | 22.0 | 0.06 | 0.25 | 0.25 | 94 | 1004.9 |
| 20260507090006 | 50 | 0 | 7.0 | 22.0 | 0.06 | 0.24 | 0.24 | 94 | 1004.8 |
| 20260507085502 | 50 | 0 | 9.0 | 22.0 | 0.05 | 0.24 | 0.24 | 94 | 1004.8 |
| 20260507085005 | 50 | 0 | 6.0 | 19.0 | 0.05 | 0.23 | 0.23 | 94 | 1005.0 |
| 20260507084503 | 50 | 0 | 5.0 | 19.0 | 0.05 | 0.22 | 0.22 | 94 | 1005.1 |
| 20260507084004 | 50 | 0 | 4.0 | 18.0 | 0.06 | 0.22 | 0.22 | 94 | 1005.1 |
| 20260507083502 | 50 | 0 | 7.0 | 18.0 | 0.06 | 0.21 | 0.21 | 94 | 1005.1 |
| 20260507083005 | 50 | 0 | 7.0 | 20.0 | 0.07 | 0.20 | 0.20 | 94 | 1005.5 |
| 20260507082503 | 50 | 0 | 6.0 | 26.0 | 0.07 | 0.20 | 0.20 | 94 | 1005.3 |
| 20260507082006 | 50 | 0 | 8.0 | 26.0 | 0.08 | 0.20 | 0.20 | 94 | 1005.4 |
| 20260507081503 | 50 | 0 | 6.0 | 24.0 | 0.08 | 0.20 | 0.20 | 94 | 1005.5 |
| 20260507081003 | 50 | 0 | 9.0 | 24.0 | 0.09 | 0.20 | 0.20 | 94 | 1005.6 |
| 20260507080503 | 50 | 0 | 7.0 | 19.0 | 0.10 | 0.19 | 0.20 | 94 | 1005.6 |
| 20260507080005 | 49 | 0 | 7.0 | 18.0 | 0.10 | 0.19 | 0.19 | 94 | 1005.7 |
| 20260507075503 | 49 | 0 | 5.0 | 18.0 | 0.10 | 0.18 | 0.19 | 94 | 1005.7 |
| 20260507075004 | 49 | 0 | 6.0 | 17.0 | 0.09 | 0.18 | 0.18 | 93 | 1005.6 |
| 20260507074750 | 49 | 0 | 8.0 | 21.0 | 0.10 | 0.17 | 0.17 | 93 | 1005.6 |
| 20260507074003 | 49 | 0 | 6.0 | 21.0 | 0.09 | 0.17 | 0.17 | 93 | 1005.7 |
| 20260507073502 | 49 | 0 | 6.0 | 19.0 | 0.10 | 0.16 | 0.16 | 93 | 1005.9 |
| 20260507073003 | 50 | 0 | 6.0 | 19.0 | 0.09 | 0.13 | 0.13 | 93 | 1005.9 |
| 20260507072502 | 50 | 0 | 7.0 | 19.0 | 0.09 | 0.13 | 0.13 | 93 | 1005.9 |
| 20260507072005 | 50 | 0 | 6.0 | 26.0 | 0.08 | 0.12 | 0.12 | 93 | 1006.1 |
| 20260507071502 | 50 | 0 | 9.0 | 26.0 | 0.09 | 0.12 | 0.12 | 93 | 1006.4 |
| 20260507071002 | 50 | 0 | 9.0 | 21.0 | 0.10 | 0.11 | 0.11 | 92 | 1006.5 |
| 20260507070504 | 50 | 0 | 6.0 | 16.0 | 0.09 | 0.09 | 0.09 | 92 | 1006.5 |
| 20260507070009 | 50 | 0 | 5.0 | 18.0 | 0.08 | 0.09 | 0.09 | 92 | 1006.6 |
| 20260507065503 | 51 | 0 | 6.0 | 18.0 | 0.09 | 0.09 | 0.09 | 92 | 1006.7 |
| 20260507065004 | 51 | 0 | 5.0 | 20.0 | 0.09 | 0.09 | 0.09 | 92 | 1006.6 |
| 20260507064502 | 51 | 0 | 9.0 | 20.0 | 0.07 | 0.07 | 0.07 | 92 | 1006.7 |
| 20260507064003 | 51 | 0 | 3.0 | 10.0 | 0.07 | 0.06 | 0.07 | 92 | 1006.8 |
| 20260507063503 | 51 | 0 | 4.0 | 10.0 | 0.06 | 0.05 | 0.06 | 91 | 1007.0 |
| 20260507063004 | 51 | 0 | 2.0 | 12.0 | 0.04 | 0.04 | 0.04 | 91 | 1007.1 |
| 20260507062503 | 51 | 0 | 3.0 | 12.0 | 0.04 | 0.04 | 0.04 | 91 | 1007.1 |
| 20260507062003 | 51 | 0 | 2.0 | 19.0 | 0.04 | 0.04 | 0.04 | 90 | 1007.3 |
| 20260507061503 | 51 | 0 | 6.0 | 20.0 | 0.02 | 0.02 | 0.02 | 90 | 1007.4 |
| 20260507061003 | 51 | 0 | 4.0 | 20.0 | 0.01 | 0.01 | 0.01 | 89 | 1007.5 |
| 20260507060503 | 51 | 0 | 5.0 | 20.0 | 0.01 | 0.01 | 0.01 | 89 | 1007.6 |
| 20260507060006 | 51 | 0 | 5.0 | 15.0 | 0.01 | 0.00 | 0.01 | 88 | 1007.5 |
| 20260507055503 | 52 | 0 | 3.0 | 15.0 | 0.00 | 0.00 | 0.00 | 88 | 1007.6 |
| 20260507055004 | 51 | 0 | 5.0 | 13.0 | 0.00 | 0.00 | 0.00 | 88 | 1007.9 |
| 20260507054502 | 51 | 0 | 4.0 | 13.0 | 0.00 | 0.00 | 0.00 | 88 | 1007.9 |
| 20260507054004 | 51 | 0 | 3.0 | 11.0 | 0.00 | 0.00 | 0.00 | 87 | 1008.1 |
| 20260507053502 | 51 | 0 | 3.0 | 10.0 | 0.00 | 0.00 | 0.00 | 88 | 1008.2 |
| 20260507053003 | 51 | 0 | 3.0 | 14.0 | 0.00 | 0.00 | 0.00 | 87 | 1008.0 |
| 20260507052502 | 51 | 0 | 6.0 | 14.0 | 0.00 | 0.00 | 0.00 | 87 | 1008.2 |
| 20260507052003 | 51 | 0 | 2.0 | 24.0 | 0.00 | 0.00 | 0.00 | 87 | 1008.4 |
| 20260507051501 | 51 | 0 | 4.0 | 24.0 | 0.00 | 0.00 | 0.00 | 87 | 1008.7 |
| 20260507051002 | 51 | 0 | 4.0 | 13.0 | 0.00 | 0.00 | 0.00 | 86 | 1008.7 |
| 20260507050451 | 51 | 0 | 4.0 | 14.0 | 0.00 | 0.00 | 0.00 | 86 | 1008.8 |
| 20260507045950 | 51 | 0 | 7.0 | 15.0 | 0.00 | 0.00 | 0.00 | 86 | 1008.4 |
| 20260507045444 | 52 | 0 | 5.0 | 15.0 | 0.00 | 0.00 | 0.00 | 86 | 1008.6 |
| 20260507044944 | 52 | 0 | 5.0 | 19.0 | 0.00 | 0.00 | 0.00 | 86 | 1008.6 |
| 20260507044444 | 52 | 0 | 4.0 | 19.0 | 0.00 | 0.00 | 0.00 | 86 | 1008.8 |
| 20260507043943 | 52 | 0 | 3.0 | 14.0 | 0.00 | 0.00 | 0.00 | 86 | 1009.2 |
| 20260507043443 | 52 | 0 | 6.0 | 15.0 | 0.00 | 0.00 | 0.00 | 86 | 1009.4 |
| 20260507042943 | 52 | 0 | 6.0 | 15.0 | 0.00 | 0.00 | 0.00 | 86 | 1009.5 |
| 20260507042440 | 52 | 0 | 5.0 | 17.0 | 0.00 | 0.00 | 0.00 | 86 | 1009.7 |
| 20260507041940 | 52 | 0 | 7.0 | 17.0 | 0.00 | 0.00 | 0.00 | 86 | 1009.8 |
| 20260507041439 | 52 | 0 | 2.0 | 17.0 | 0.00 | 0.00 | 0.00 | 86 | 1010.0 |
| 20260507040940 | 52 | 0 | 5.0 | 18.0 | 0.00 | 0.00 | 0.00 | 86 | 1010.1 |
| 20260507040440 | 52 | 0 | 6.0 | 18.0 | 0.00 | 0.00 | 0.00 | 86 | 1010.1 |
| 20260507035941 | 52 | 0 | 6.0 | 15.0 | 0.00 | 0.00 | 0.00 | 86 | 1010.2 |
| 20260507035439 | 52 | 0 | 1.0 | 13.0 | 0.00 | 0.00 | 0.00 | 85 | 1010.4 |
| 20260507034933 | 52 | 0 | 1.0 | 13.0 | 0.00 | 0.00 | 0.00 | 86 | 1010.3 |
| 20260507034435 | 52 | 0 | 4.0 | 15.0 | 0.00 | 0.00 | 0.00 | 86 | 1010.5 |
| 20260507033932 | 52 | 0 | 4.0 | 16.0 | 0.00 | 0.00 | 0.00 | 86 | 1010.6 |
| 20260507033430 | 52 | 0 | 8.0 | 16.0 | 0.00 | 0.00 | 0.00 | 86 | 1011.0 |
| 20260507032932 | 52 | 0 | 3.0 | 11.0 | 0.00 | 0.00 | 0.00 | 86 | 1010.7 |
| 20260507032431 | 52 | 0 | 5.0 | 15.0 | 0.00 | 0.00 | 0.00 | 86 | 1010.7 |
| 20260507031930 | 52 | 0 | 5.0 | 15.0 | 0.00 | 0.00 | 0.00 | 86 | 1010.6 |
| 20260507031431 | 52 | 0 | 4.0 | 15.0 | 0.00 | 0.00 | 0.00 | 86 | 1010.6 |
| 20260507030931 | 52 | 0 | 4.0 | 14.0 | 0.00 | 0.00 | 0.00 | 86 | 1010.6 |
| 20260507030431 | 52 | 0 | 3.0 | 12.0 | 0.00 | 0.00 | 0.00 | 86 | 1010.8 |
| 20260507025931 | 52 | 0 | 2.0 | 16.0 | 0.00 | 0.00 | 0.00 | 85 | 1010.9 |
| 20260507025430 | 52 | 0 | 2.0 | 16.0 | 0.00 | 0.00 | 0.00 | 85 | 1011.0 |
| 20260507024931 | 52 | 0 | 4.0 | 12.0 | 0.00 | 0.00 | 0.00 | 85 | 1011.1 |
| 20260507024432 | 52 | 0 | 1.0 | 12.0 | 0.00 | 0.00 | 0.00 | 85 | 1011.4 |
| 20260507023931 | 52 | 0 | 5.0 | 11.0 | 0.00 | 0.00 | 0.00 | 85 | 1011.3 |
| 20260507023430 | 52 | 0 | 4.0 | 10.0 | 0.00 | 0.00 | 0.00 | 85 | 1011.5 |
| 20260507022932 | 53 | 0 | 3.0 | 10.0 | 0.00 | 0.00 | 0.00 | 85 | 1011.7 |
| 20260507022431 | 53 | 0 | 1.0 | 12.0 | 0.00 | 0.00 | 0.00 | 85 | 1011.8 |
| 20260507021932 | 53 | 0 | 5.0 | 12.0 | 0.00 | 0.00 | 0.00 | 85 | 1011.7 |
| 20260507021431 | 53 | 0 | 3.0 | 13.0 | 0.00 | 0.00 | 0.00 | 85 | 1011.7 |
| 20260507020930 | 53 | 0 | 5.0 | 13.0 | 0.00 | 0.00 | 0.00 | 85 | 1012.0 |
| 20260507020431 | 53 | 0 | 2.0 | 14.0 | 0.00 | 0.00 | 0.00 | 85 | 1011.9 |
| 20260507015931 | 53 | 0 | 6.0 | 14.0 | 0.00 | 0.00 | 0.00 | 85 | 1011.8 |
| 20260507015431 | 53 | 0 | 3.0 | 11.0 | 0.00 | 0.00 | 0.00 | 85 | 1011.9 |
| 20260507014930 | 53 | 0 | 5.0 | 11.0 | 0.00 | 0.00 | 0.00 | 84 | 1012.1 |
| 20260507014431 | 53 | 0 | 3.0 | 10.0 | 0.00 | 0.00 | 0.00 | 84 | 1012.1 |
| 20260507013931 | 53 | 0 | 4.0 | 10.0 | 0.00 | 0.00 | 0.00 | 84 | 1012.2 |
| 20260507013431 | 53 | 0 | 3.0 | 10.0 | 0.00 | 0.00 | 0.00 | 84 | 1012.2 |
| 20260507012931 | 54 | 0 | 2.0 | 11.0 | 0.00 | 0.00 | 0.00 | 83 | 1012.5 |
| 20260507012431 | 54 | 0 | 2.0 | 11.0 | 0.00 | 0.00 | 0.00 | 83 | 1012.5 |
| 20260507011931 | 54 | 0 | 4.0 | 12.0 | 0.00 | 0.00 | 0.00 | 83 | 1012.7 |
| 20260507011716 | 54 | 0 | 5.0 | 12.0 | 0.00 | 0.00 | 0.00 | 83 | 1012.7 |
| 20260507011221 | 54 | 0 | 4.0 | 12.0 | 0.00 | 0.00 | 0.00 | 83 | 1012.9 |
| 20260507010918 | 55 | 0 | 5.0 | 16.0 | 0.00 | 0.00 | 0.00 | 82 | 1013.0 |
| 20260507010601 | 55 | 0 | 4.0 | 15.0 | 0.00 | 0.00 | 0.00 | 82 | 1012.9 |
| 20260507010029 | 55 | 0 | 3.0 | 18.0 | 0.00 | 0.00 | 0.00 | 82 | 1012.9 |
| 20260507005459 | 55 | 0 | 4.0 | 18.0 | 0.00 | 0.00 | 0.00 | 82 | 1013.1 |
| 20260507004431 | 55 | 0 | 7.0 | 16.0 | 0.00 | 0.00 | 0.00 | 82 | 1012.9 |
| 20260507003927 | 55 | 0 | 4.0 | 15.0 | 0.00 | 0.00 | 0.00 | 82 | 1013.1 |
| 20260507003826 | 56 | 0 | 4.0 | 16.0 | 0.00 | 0.00 | 0.00 | 82 | 1013.2 |
| 20260507003821 | 56 | 0 | 4.0 | 16.0 | 0.00 | 0.00 | 0.00 | 82 | 1013.0 |
| 20260507003241 | 56 | 0 | 5.0 | 16.0 | 0.00 | 0.00 | 0.00 | 82 | 1013.1 |
| 20260507002209 | 56 | 0 | 6.0 | 17.0 | 0.00 | 0.00 | 0.00 | 82 | 1013.2 |
| 20260507001421 | 56 | 0 | 3.0 | 17.0 | 0.00 | 0.00 | 0.00 | 82 | 1013.2 |
| 20260507001208 | 56 | 0 | 4.0 | 12.0 | 0.00 | 0.00 | 0.00 | 82 | 1013.2 |
| 20260507000420 | 56 | 0 | 3.0 | 12.0 | 0.00 | 0.00 | 0.00 | 82 | 1013.3 |
| 20260506235918 | 56 | 0 | 2.0 | 13.0 | 0.00 | 0.00 | 0.00 | 82 | 1013.2 |
| 20260506235417 | 56 | 0 | 3.0 | 14.0 | 0.00 | 0.00 | 0.00 | 81 | 1013.1 |
| 20260506234917 | 56 | 0 | 4.0 | 16.0 | 0.00 | 0.00 | 0.00 | 81 | 1013.2 |
| 20260506234411 | 56 | 0 | 3.0 | 16.0 | 0.00 | 0.00 | 0.00 | 81 | 1013.2 |
| 20260506233913 | 56 | 0 | 4.0 | 19.0 | 0.00 | 0.00 | 0.00 | 81 | 1013.2 |
| 20260506233411 | 56 | 0 | 8.0 | 19.0 | 0.00 | 0.00 | 0.00 | 80 | 1013.2 |
| 20260506232910 | 56 | 0 | 5.0 | 19.0 | 0.00 | 0.00 | 0.00 | 80 | 1013.1 |
| 20260506232409 | 56 | 0 | 3.0 | 17.0 | 0.00 | 0.00 | 0.00 | 80 | 1013.3 |
| 20260506231910 | 56 | 0 | 5.0 | 15.0 | 0.00 | 0.00 | 0.00 | 80 | 1013.1 |
| 20260506231410 | 57 | 0 | 3.0 | 14.0 | 0.00 | 0.00 | 0.00 | 80 | 1013.1 |
| 20260506230910 | 57 | 0 | 3.0 | 17.0 | 0.00 | 0.00 | 0.00 | 79 | 1013.1 |
| 20260506230408 | 57 | 0 | 6.0 | 17.0 | 0.00 | 0.00 | 0.00 | 79 | 1013.1 |
| 20260506225906 | 57 | 0 | 7.0 | 15.0 | 0.00 | 0.00 | 0.00 | 78 | 1013.0 |
| 20260506225406 | 58 | 0 | 4.0 | 14.0 | 0.00 | 0.00 | 0.00 | 78 | 1013.0 |
| 20260506224906 | 58 | 0 | 4.0 | 18.0 | 0.00 | 0.00 | 0.00 | 77 | 1013.0 |
| 20260506224405 | 58 | 0 | 7.0 | 18.0 | 0.00 | 0.00 | 0.00 | 77 | 1012.9 |
| 20260506223905 | 58 | 0 | 3.0 | 17.0 | 0.00 | 0.00 | 0.00 | 76 | 1013.0 |
| 20260506223405 | 59 | 0 | 6.0 | 20.0 | 0.00 | 0.00 | 0.00 | 76 | 1013.2 |
| 20260506222904 | 59 | 0 | 6.0 | 20.0 | 0.00 | 0.00 | 0.00 | 75 | 1013.3 |
| 20260506222405 | 60 | 0 | 9.0 | 17.0 | 0.00 | 0.00 | 0.00 | 74 | 1013.2 |
| 20260506221904 | 60 | 0 | 6.0 | 16.0 | 0.00 | 0.00 | 0.00 | 75 | 1013.4 |
| 20260506221403 | 60 | 0 | 5.0 | 16.0 | 0.00 | 0.00 | 0.00 | 75 | 1013.5 |
| 20260506220904 | 61 | 0 | 2.0 | 17.0 | 0.00 | 0.00 | 0.00 | 75 | 1013.5 |
| 20260506220404 | 61 | 0 | 3.0 | 17.0 | 0.00 | 0.00 | 0.00 | 75 | 1013.4 |
| 20260506215903 | 61 | 0 | 3.0 | 14.0 | 0.00 | 0.00 | 0.00 | 75 | 1013.4 |
| 20260506215404 | 61 | 0 | 4.0 | 14.0 | 0.00 | 0.00 | 0.00 | 75 | 1013.4 |
| 20260506214902 | 61 | 0 | 3.0 | 13.0 | 0.00 | 0.00 | 0.00 | 75 | 1013.5 |
| 20260506214403 | 61 | 0 | 5.0 | 17.0 | 0.00 | 0.00 | 0.00 | 75 | 1013.5 |
| 20260506213902 | 62 | 0 | 7.0 | 17.0 | 0.00 | 0.00 | 0.00 | 74 | 1013.6 |
| 20260506213649 | 62 | 0 | 6.0 | 22.0 | 0.00 | 0.00 | 0.00 | 74 | 1013.6 |
| 20260506212902 | 62 | 0 | 11.0 | 22.0 | 0.00 | 0.00 | 0.00 | 74 | 1013.7 |
| 20260506212644 | 62 | 0 | 8.0 | 19.0 | 0.00 | 0.00 | 0.00 | 74 | 1013.7 |
| 20260506211902 | 62 | 0 | 4.0 | 16.0 | 0.00 | 0.00 | 0.00 | 74 | 1013.5 |
| 20260506211402 | 62 | 0 | 6.0 | 16.0 | 0.00 | 0.00 | 0.00 | 73 | 1013.6 |
| 20260506210901 | 62 | 0 | 5.0 | 19.0 | 0.00 | 0.00 | 0.00 | 72 | 1013.6 |
| 20260506210646 | 62 | 0 | 9.0 | 28.0 | 0.00 | 0.00 | 0.00 | 72 | 1013.5 |
| 20260506205901 | 62 | 0 | 13.0 | 28.0 | 0.00 | 0.00 | 0.00 | 72 | 1013.6 |
| 20260506205647 | 62 | 0 | 4.0 | 18.0 | 0.00 | 0.00 | 0.00 | 73 | 1013.5 |
| 20260506204901 | 61 | 0 | 7.0 | 14.0 | 0.00 | 0.00 | 0.00 | 74 | 1013.6 |
| 20260506204647 | 61 | 0 | 6.0 | 22.0 | 0.00 | 0.00 | 0.00 | 73 | 1013.6 |
| 20260506203902 | 61 | 0 | 6.0 | 22.0 | 0.00 | 0.00 | 0.00 | 72 | 1013.6 |
| 20260506203645 | 62 | 0 | 7.0 | 16.0 | 0.00 | 0.00 | 0.00 | 70 | 1013.6 |
| 20260506202900 | 62 | 0 | 5.0 | 19.0 | 0.00 | 0.00 | 0.00 | 70 | 1013.4 |
| 20260506202401 | 63 | 0 | 5.0 | 24.0 | 0.00 | 0.00 | 0.00 | 70 | 1013.3 |
| 20260506202019 | 65 | 0 | 4.0 | 21.0 | 0.00 | 0.00 | 0.00 | 70 | 1013.1 |
| 20260506201954 | 63 | 0 | 7.0 | 24.0 | 0.00 | 0.00 | 0.00 | 69 | 1013.3 |
| 20260506201428 | 64 | 0 | 8.0 | 21.0 | 0.00 | 0.00 | 0.00 | 70 | 1013.0 |
| 20260506200646 | 65 | 0 | 6.0 | 17.0 | 0.00 | 0.00 | 0.00 | 71 | 1013.2 |
| 20260506195900 | 65 | 0 | 7.0 | 19.0 | 0.00 | 0.00 | 0.00 | 70 | 1013.4 |
| 20260506195846 | 66 | 0 | 7.0 | 22.0 | 0.00 | 0.00 | 0.00 | 68 | 1013.5 |
| 20260506195840 | 66 | 0 | 4.0 | 19.0 | 0.00 | 0.00 | 0.00 | 69 | 1013.6 |
| 20260506195526 | 66 | 0 | 8.0 | 22.0 | 0.00 | 0.00 | 0.00 | 69 | 1013.4 |
| 20260506194724 | 66 | 0 | 6.0 | 19.0 | 0.00 | 0.00 | 0.00 | 68 | 1013.6 |
| 20260506193646 | 66 | 0 | 9.0 | 18.0 | 0.00 | 0.00 | 0.00 | 69 | 1013.8 |
| 20260506192859 | 66 | 0 | 7.0 | 31.0 | 0.00 | 0.00 | 0.00 | 69 | 1013.8 |
| 20260506192359 | 66 | 0 | 10.0 | 31.0 | 0.00 | 0.00 | 0.00 | 69 | 1014.0 |
| 20260506191900 | 66 | 0 | 10.0 | 22.0 | 0.00 | 0.00 | 0.00 | 70 | 1014.1 |
| 20260506191359 | 65 | 0 | 6.0 | 28.0 | 0.00 | 0.00 | 0.00 | 70 | 1014.2 |
| 20260506190858 | 66 | 0 | 12.0 | 28.0 | 0.00 | 0.00 | 0.00 | 69 | 1014.3 |
| 20260506190359 | 65 | 0 | 9.0 | 27.0 | 0.00 | 0.00 | 0.00 | 71 | 1014.2 |
| 20260506185859 | 65 | 0 | 10.0 | 27.0 | 0.00 | 0.00 | 0.00 | 70 | 1014.3 |